ONEWEB-0200, 48244

Orbit data source: Space-Track

ONEWEB-0200, 48244 is a payload satellite owned by One Web (NAA) (UK) in LEO that was launched on Sun, 25 Apr 2021 UTC via a SOYUZ-2-1B launch vehicle from the Vostochny Cosmodrome (VOSTO). Payload-class satellites include a variety of spacecraft equipped with specific instruments for various scientific and technological missions. These include communications satellites like Starlink; space stations such as the ISS; scientific satellites like the Hubble; Earth observation satellites from companies like Planet Labs, Umbra, and HawkEye 360; GPS; miniature CubeSats for education and research; and military/defense satellites.

Loading next visibility...
Identifier
48244, 2021-031AL
Orbit
LEO
Country
Flag of UKUK
Related business
Manufacturer
One Web
Mission
Operational Commercial Communications
Bus & Motor
ARROW, Unknown motor
Mass
148 kg wet, ~140 kg dry
Launch date (UTC)
2021-04-25 (5 years ago)
Launch vehicle
SOYUZ-2-1B
Launch site
Vostochny Cosmodrome (VOSTO)
Object type
Payload
Rocket body
Debris
Shape & HBR
Trap Box + 2 Pan, 6.7 m
Radar Cross Section
3.464 m², Large (>1 m²)

Expand to show TLE details & history
Last TLE update: 4 hours ago

TLE from 4 hours ago
0 ONEWEB-0200
1 48244U 21031AL  26095.27875640  .00000044  00000-0  85259-4 0  9991
2 48244  87.8937 304.2459 0001668  82.3696 277.7623 13.14504097238650
Epoch: 2026-04-05T06:41Z
TLE epoch observation values (Epoch: 2026-04-05T06:41:24.552Z)
Latitude
-0.00006°
Longitude
10.30713°
Altitude
1,208.508 km
Speed
7.25 km/s
True Right ascension
20h 16m 59s
True Declination
0° 00' 00"
Sunlit
Object was in daylight at epoch
Visualization orbit readout
Latitude
Unknown
Longitude
Unknown
Altitude
Unknown
Speed
Unknown
Apparent Right ascension
Unknown
Apparent Declination
Unknown
Sunlit
N/A
Visualization observer readout
Local Sidereal Time
16:36:12
Azimuth
Unknown
Elevation
Unknown
Doppler factor
Unknown
Orbital elements
Apogee altitude
1,204.164 km
Perigee altitude
1,201.634 km
Semi-major axis
7,581.036 km
Eccentricity
0.00017
Inclination
87.8937°
RAAN
304.2459°
Arg. of periapsis
82.3696°
True anomaly
277.74336°
Mean anomaly
277.7623°
Eccentric anomaly
277.75283°
Mean motion
3.28814 °/min
Orbital period
109.48 mins
BSTAR
0.000085259
Loading maneuver chart data...
Computing Atmospheric mass density...
Loading historical data...
Loading historical data...
Loading historical data...
Loading historical data...
Loading historical data...
Loading historical data...
Loading historical data...

Documentation

Showing up to 5 results
|